| time (UTC) | temp F | wind direction | speed MPH | gust MPH | rain 1hr in | rain 24hr in | rain mn in | humidity % | barometer mb |
| 20260503230204 | 51 | 294 | 9.0 | 14.0 | 0.00 | 0.00 | 0.00 | 50 | 1008.6 |
| 20260503225704 | 52 | 278 | 7.0 | 12.0 | 0.00 | 0.00 | 0.00 | 50 | 1008.6 |
| 20260503225204 | 52 | 280 | 6.0 | 12.0 | 0.00 | 0.00 | 0.00 | 49 | 1008.5 |
| 20260503224704 | 52 | 299 | 6.0 | 13.0 | 0.00 | 0.00 | 0.00 | 48 | 1008.6 |
| 20260503224203 | 52 | 291 | 7.0 | 12.0 | 0.00 | 0.00 | 0.00 | 49 | 1008.5 |
| 20260503223704 | 52 | 282 | 7.0 | 12.0 | 0.00 | 0.00 | 0.00 | 47 | 1008.6 |
| 20260503223204 | 52 | 296 | 9.0 | 16.0 | 0.00 | 0.00 | 0.00 | 48 | 1008.5 |
| 20260503222205 | 53 | 286 | 7.0 | 13.0 | 0.00 | 0.00 | 0.00 | 47 | 1008.6 |
| 20260503221704 | 53 | 292 | 9.0 | 14.0 | 0.00 | 0.00 | 0.00 | 45 | 1008.5 |
| 20260503221204 | 53 | 344 | 6.0 | 15.0 | 0.00 | 0.00 | 0.00 | 48 | 1008.6 |
| 20260503220204 | 54 | 308 | 9.0 | 14.0 | 0.00 | 0.00 | 0.00 | 45 | 1008.6 |
| 20260503215705 | 54 | 273 | 6.0 | 12.0 | 0.00 | 0.00 | 0.00 | 45 | 1008.6 |
| 20260503215205 | 55 | 289 | 7.0 | 17.0 | 0.00 | 0.00 | 0.00 | 43 | 1008.6 |
| 20260503214705 | 55 | 291 | 13.0 | 20.0 | 0.00 | 0.00 | 0.00 | 44 | 1008.5 |
| 20260503214206 | 55 | 301 | 9.0 | 16.0 | 0.00 | 0.00 | 0.00 | 44 | 1008.4 |
| 20260503213705 | 55 | 293 | 9.0 | 16.0 | 0.00 | 0.00 | 0.00 | 45 | 1008.4 |
| 20260503213205 | 56 | 306 | 8.0 | 15.0 | 0.00 | 0.00 | 0.00 | 45 | 1008.5 |
| 20260503211705 | 57 | 288 | 10.0 | 20.0 | 0.00 | 0.00 | 0.00 | 45 | 1008.4 |
| 20260503211205 | 56 | 280 | 10.0 | 17.0 | 0.00 | 0.00 | 0.00 | 46 | 1008.4 |
| 20260503210705 | 56 | 291 | 7.0 | 14.0 | 0.00 | 0.00 | 0.00 | 49 | 1008.5 |
| 20260503210205 | 55 | 280 | 8.0 | 12.0 | 0.00 | 0.00 | 0.00 | 47 | 1008.4 |
| 20260503205705 | 56 | 288 | 10.0 | 18.0 | 0.00 | 0.00 | 0.00 | 48 | 1008.5 |
| 20260503204705 | 55 | 297 | 7.0 | 13.0 | 0.00 | 0.00 | 0.00 | 50 | 1008.6 |
| 20260503204205 | 55 | 291 | 7.0 | 15.0 | 0.00 | 0.00 | 0.00 | 47 | 1008.7 |
| 20260503203705 | 55 | 274 | 6.0 | 14.0 | 0.00 | 0.00 | 0.00 | 48 | 1008.7 |
| 20260503203205 | 56 | 290 | 9.0 | 15.0 | 0.00 | 0.00 | 0.00 | 49 | 1008.7 |
| 20260503202705 | 57 | 283 | 10.0 | 18.0 | 0.00 | 0.00 | 0.00 | 48 | 1008.8 |
| 20260503201705 | 56 | 302 | 9.0 | 15.0 | 0.00 | 0.00 | 0.00 | 51 | 1008.8 |
| 20260503201205 | 56 | 282 | 12.0 | 17.0 | 0.00 | 0.00 | 0.00 | 50 | 1008.8 |
| 20260503200705 | 55 | 313 | 3.0 | 10.0 | 0.00 | 0.00 | 0.00 | 50 | 1008.9 |
| 20260503200205 | 54 | 324 | 3.0 | 10.0 | 0.00 | 0.00 | 0.00 | 51 | 1008.9 |
| 20260503195705 | 54 | 312 | 3.0 | 10.0 | 0.00 | 0.00 | 0.00 | 50 | 1009.0 |
| 20260503194707 | 53 | 296 | 10.0 | 16.0 | 0.00 | 0.00 | 0.00 | 53 | 1009.0 |
| 20260503194205 | 53 | 294 | 4.0 | 10.0 | 0.00 | 0.00 | 0.00 | 53 | 1009.1 |
| 20260503193705 | 52 | 295 | 4.0 | 12.0 | 0.00 | 0.00 | 0.00 | 53 | 1009.2 |
| 20260503192705 | 52 | 303 | 4.0 | 10.0 | 0.00 | 0.00 | 0.00 | 53 | 1009.4 |
| 20260503192205 | 52 | 289 | 6.0 | 12.0 | 0.00 | 0.00 | 0.00 | 55 | 1009.4 |
| 20260503191704 | 51 | 278 | 9.0 | 14.0 | 0.00 | 0.00 | 0.00 | 55 | 1009.5 |
| 20260503190705 | 52 | 300 | 6.0 | 14.0 | 0.00 | 0.00 | 0.00 | 55 | 1009.6 |
| 20260503190206 | 52 | 284 | 7.0 | 12.0 | 0.00 | 0.00 | 0.00 | 55 | 1009.6 |
| 20260503185705 | 51 | 288 | 6.0 | 12.0 | 0.00 | 0.00 | 0.00 | 57 | 1009.6 |
| 20260503185205 | 50 | 298 | 6.0 | 9.0 | 0.00 | 0.00 | 0.00 | 57 | 1009.8 |
| 20260503184705 | 50 | 290 | 7.0 | 15.0 | 0.00 | 0.00 | 0.00 | 57 | 1009.9 |
| 20260503184205 | 51 | 280 | 8.0 | 16.0 | 0.00 | 0.00 | 0.00 | 56 | 1009.9 |
| 20260503183705 | 51 | 295 | 9.0 | 14.0 | 0.00 | 0.00 | 0.00 | 57 | 1009.9 |
| 20260503183205 | 51 | 304 | 6.0 | 12.0 | 0.00 | 0.00 | 0.00 | 56 | 1009.8 |
| 20260503182705 | 52 | 287 | 8.0 | 16.0 | 0.00 | 0.00 | 0.00 | 55 | 1009.9 |
| 20260503181705 | 52 | 295 | 9.0 | 13.0 | 0.00 | 0.00 | 0.00 | 57 | 1010.0 |
| 20260503181205 | 52 | 276 | 9.0 | 14.0 | 0.00 | 0.00 | 0.00 | 57 | 1009.9 |
| 20260503180205 | 52 | 296 | 6.0 | 12.0 | 0.00 | 0.00 | 0.00 | 56 | 1009.9 |
| 20260503175705 | 53 | 277 | 7.0 | 17.0 | 0.00 | 0.00 | 0.00 | 58 | 1010.0 |
| 20260503175205 | 53 | 291 | 10.0 | 20.0 | 0.00 | 0.00 | 0.00 | 57 | 1010.0 |
| 20260503174705 | 52 | 293 | 10.0 | 14.0 | 0.00 | 0.00 | 0.00 | 59 | 1010.0 |
| 20260503174205 | 51 | 279 | 10.0 | 18.0 | 0.00 | 0.00 | 0.00 | 58 | 1010.1 |
| 20260503173705 | 50 | 290 | 10.0 | 17.0 | 0.00 | 0.00 | 0.00 | 58 | 1010.1 |
| 20260503173205 | 50 | 288 | 9.0 | 15.0 | 0.00 | 0.00 | 0.00 | 57 | 1010.1 |
| 20260503172205 | 50 | 294 | 7.0 | 15.0 | 0.00 | 0.00 | 0.00 | 58 | 1010.1 |
| 20260503171705 | 50 | 304 | 5.0 | 15.0 | 0.00 | 0.00 | 0.00 | 57 | 1010.1 |
| 20260503171205 | 50 | 281 | 8.0 | 17.0 | 0.00 | 0.00 | 0.00 | 55 | 1010.0 |
| 20260503170705 | 50 | 300 | 7.0 | 14.0 | 0.00 | 0.00 | 0.00 | 56 | 1010.1 |
| 20260503170205 | 50 | 295 | 9.0 | 15.0 | 0.00 | 0.00 | 0.00 | 57 | 1010.0 |
| 20260503160204 | 51 | 300 | 11.0 | 17.0 | 0.00 | 0.00 | 0.00 | 61 | 1010.0 |
| 20260503150705 | 47 | 309 | 4.0 | 9.0 | 0.00 | 0.00 | 0.00 | 68 | 1010.3 |
| 20260503150205 | 47 | 289 | 3.0 | 8.0 | 0.00 | 0.00 | 0.00 | 68 | 1010.3 |
| 20260503131204 | 44 | 303 | 2.0 | 9.0 | 0.00 | 0.00 | 0.00 | 79 | 1011.0 |
| 20260503130705 | 44 | 290 | 5.0 | 9.0 | 0.00 | 0.00 | 0.00 | 80 | 1010.9 |
| 20260503130204 | 43 | 295 | 5.0 | 9.0 | 0.00 | 0.00 | 0.00 | 81 | 1010.9 |
| 20260503120205 | 41 | 280 | 1.0 | 2.0 | 0.00 | 0.01 | 0.00 | 89 | 1010.8 |
| 20260503110706 | 35 | 98 | 0.0 | 0.0 | 0.00 | 0.01 | 0.00 | 95 | 1010.5 |
| 20260503100204 | 32 | 126 | 0.0 | 0.0 | 0.00 | 0.06 | 0.00 | 95 | 1010.3 |
| 20260503090204 | 31 | 253 | 0.0 | 2.0 | 0.00 | 0.06 | 0.00 | 95 | 1010.3 |
| 20260503080705 | 33 | 285 | 2.0 | 3.0 | 0.00 | 0.06 | 0.00 | 92 | 1010.5 |
| 20260503080204 | 33 | 310 | 1.0 | 3.0 | 0.00 | 0.06 | 0.00 | 91 | 1010.6 |
| 20260503072706 | 35 | 287 | 2.0 | 5.0 | 0.00 | 0.06 | 0.00 | 89 | 1010.7 |
| 20260503072205 | 35 | 303 | 3.0 | 6.0 | 0.00 | 0.06 | 0.00 | 89 | 1010.7 |
| 20260503071705 | 35 | 291 | 3.0 | 3.0 | 0.00 | 0.06 | 0.00 | 89 | 1010.8 |
| 20260503071204 | 35 | 294 | 1.0 | 3.0 | 0.00 | 0.06 | 0.00 | 88 | 1010.9 |
| 20260503070204 | 36 | 298 | 2.0 | 3.0 | 0.00 | 0.07 | 0.00 | 87 | 1011.0 |
| 20260503060204 | 36 | 306 | 1.0 | 3.0 | 0.00 | 0.09 | 0.00 | 88 | 1011.2 |
| 20260503054704 | 36 | 315 | 2.0 | 3.0 | 0.00 | 0.09 | 0.00 | 87 | 1011.3 |
| 20260503052705 | 36 | 308 | 2.0 | 3.0 | 0.00 | 0.09 | 0.00 | 86 | 1011.4 |
| 20260503052204 | 36 | 315 | 2.0 | 3.0 | 0.00 | 0.09 | 0.00 | 86 | 1011.4 |
| 20260503051704 | 36 | 298 | 2.0 | 5.0 | 0.00 | 0.09 | 0.00 | 85 | 1011.6 |
| 20260503051204 | 36 | 297 | 2.0 | 5.0 | 0.00 | 0.09 | 0.00 | 85 | 1011.6 |
| 20260503050704 | 36 | 303 | 2.0 | 3.0 | 0.00 | 0.09 | 0.00 | 85 | 1011.6 |
| 20260503050205 | 36 | 288 | 2.0 | 3.0 | 0.00 | 0.09 | 0.00 | 84 | 1011.8 |
| 20260503045705 | 36 | 290 | 2.0 | 3.0 | 0.00 | 0.09 | 0.00 | 83 | 1011.8 |
| 20260503045204 | 37 | 284 | 1.0 | 3.0 | 0.00 | 0.09 | 0.00 | 83 | 1011.8 |
| 20260503044204 | 37 | 289 | 3.0 | 6.0 | 0.00 | 0.09 | 0.00 | 83 | 1011.7 |
| 20260503043704 | 38 | 279 | 3.0 | 3.0 | 0.00 | 0.09 | 0.00 | 82 | 1011.8 |
| 20260503043204 | 38 | 272 | 3.0 | 6.0 | 0.00 | 0.09 | 0.00 | 81 | 1011.8 |
| 20260503042204 | 38 | 270 | 2.0 | 3.0 | 0.00 | 0.10 | 0.00 | 81 | 1011.9 |
| 20260503040704 | 38 | 285 | 2.0 | 3.0 | 0.00 | 0.12 | 0.00 | 79 | 1012.0 |
| 20260503040205 | 38 | 297 | 2.0 | 3.0 | 0.00 | 0.14 | 0.00 | 79 | 1012.0 |
| 20260503035704 | 39 | 279 | 2.0 | 3.0 | 0.00 | 0.15 | 0.15 | 79 | 1011.9 |
| 20260503035204 | 39 | 280 | 2.0 | 3.0 | 0.00 | 0.16 | 0.15 | 78 | 1012.0 |
| 20260503034705 | 39 | 279 | 2.0 | 3.0 | 0.00 | 0.17 | 0.15 | 78 | 1012.1 |
| 20260503033704 | 39 | 282 | 2.0 | 3.0 | 0.00 | 0.17 | 0.15 | 77 | 1012.2 |
| 20260503033204 | 39 | 276 | 2.0 | 3.0 | 0.00 | 0.18 | 0.15 | 77 | 1012.2 |
| 20260503032704 | 40 | 282 | 2.0 | 3.0 | 0.00 | 0.18 | 0.15 | 77 | 1012.1 |
| 20260503032204 | 40 | 276 | 2.0 | 3.0 | 0.00 | 0.19 | 0.15 | 76 | 1012.1 |
| 20260503030704 | 40 | 278 | 2.0 | 3.0 | 0.00 | 0.20 | 0.15 | 76 | 1012.3 |
| 20260503030204 | 40 | 280 | 2.0 | 3.0 | 0.00 | 0.21 | 0.15 | 76 | 1012.3 |
| 20260503025704 | 40 | 281 | 2.0 | 3.0 | 0.00 | 0.21 | 0.15 | 75 | 1012.4 |
| 20260503024705 | 41 | 287 | 2.0 | 3.0 | 0.00 | 0.23 | 0.15 | 74 | 1012.4 |
| 20260503024204 | 41 | 283 | 3.0 | 3.0 | 0.00 | 0.23 | 0.15 | 74 | 1012.4 |
| 20260503023704 | 41 | 281 | 2.0 | 3.0 | 0.00 | 0.24 | 0.15 | 74 | 1012.5 |
| 20260503023204 | 41 | 277 | 2.0 | 6.0 | 0.00 | 0.24 | 0.15 | 72 | 1012.4 |
| 20260503022204 | 41 | 287 | 3.0 | 3.0 | 0.00 | 0.24 | 0.15 | 72 | 1012.4 |
| 20260503021704 | 41 | 299 | 3.0 | 6.0 | 0.00 | 0.24 | 0.15 | 72 | 1012.5 |
| 20260503020704 | 42 | 283 | 3.0 | 9.0 | 0.00 | 0.24 | 0.15 | 72 | 1012.5 |
| 20260503020205 | 42 | 298 | 5.0 | 9.0 | 0.00 | 0.24 | 0.15 | 72 | 1012.5 |
| 20260503015704 | 42 | 287 | 5.0 | 8.0 | 0.00 | 0.24 | 0.15 | 73 | 1012.5 |
| 20260503015204 | 42 | 296 | 5.0 | 12.0 | 0.00 | 0.24 | 0.15 | 72 | 1012.6 |
| 20260503014205 | 42 | 284 | 5.0 | 10.0 | 0.00 | 0.24 | 0.15 | 71 | 1012.6 |
| 20260503013704 | 42 | 301 | 4.0 | 9.0 | 0.00 | 0.24 | 0.15 | 71 | 1012.6 |
| 20260503013204 | 43 | 295 | 5.0 | 9.0 | 0.00 | 0.24 | 0.15 | 70 | 1012.7 |
| 20260503012704 | 43 | 291 | 3.0 | 9.0 | 0.00 | 0.24 | 0.15 | 69 | 1012.5 |
| 20260503012204 | 43 | 296 | 2.0 | 8.0 | 0.00 | 0.24 | 0.15 | 68 | 1012.5 |
| 20260503011204 | 43 | 300 | 1.0 | 5.0 | 0.00 | 0.24 | 0.15 | 69 | 1012.6 |
| 20260503010704 | 43 | 300 | 5.0 | 9.0 | 0.00 | 0.24 | 0.15 | 67 | 1012.6 |
| 20260503010204 | 44 | 296 | 3.0 | 7.0 | 0.00 | 0.24 | 0.15 | 69 | 1012.6 |
| 20260503005705 | 44 | 307 | 3.0 | 8.0 | 0.00 | 0.24 | 0.15 | 69 | 1012.5 |
| 20260503005204 | 44 | 315 | 1.0 | 3.0 | 0.00 | 0.24 | 0.15 | 67 | 1012.4 |
| 20260503004704 | 45 | 294 | 3.0 | 12.0 | 0.00 | 0.24 | 0.15 | 69 | 1012.5 |
| 20260503004203 | 45 | 289 | 6.0 | 10.0 | 0.00 | 0.24 | 0.15 | 67 | 1012.2 |
| 20260503003704 | 45 | 295 | 6.0 | 10.0 | 0.00 | 0.24 | 0.15 | 67 | 1012.3 |
| 20260503003204 | 45 | 294 | 5.0 | 9.0 | 0.00 | 0.24 | 0.15 | 66 | 1012.2 |
| 20260503002704 | 45 | 299 | 4.0 | 9.0 | 0.00 | 0.24 | 0.15 | 66 | 1012.1 |
| 20260503001705 | 46 | 289 | 6.0 | 12.0 | 0.00 | 0.24 | 0.15 | 66 | 1012.0 |
| 20260503001204 | 46 | 291 | 3.0 | 8.0 | 0.00 | 0.24 | 0.15 | 64 | 1011.9 |
| 20260503000703 | 46 | 303 | 3.0 | 8.0 | 0.00 | 0.24 | 0.15 | 67 | 1011.8 |
| 20260503000204 | 46 | 300 | 5.0 | 9.0 | 0.00 | 0.24 | 0.15 | 65 | 1011.8 |
| 20260502235204 | 47 | 324 | 3.0 | 7.0 | 0.00 | 0.24 | 0.15 | 64 | 1011.8 |
| 20260502234704 | 47 | 314 | 2.0 | 8.0 | 0.00 | 0.24 | 0.15 | 66 | 1011.8 |
| 20260502233704 | 47 | 292 | 4.0 | 12.0 | 0.00 | 0.24 | 0.15 | 64 | 1011.8 |
| 20260502233204 | 47 | 305 | 3.0 | 9.0 | 0.00 | 0.24 | 0.15 | 65 | 1011.7 |
| 20260502232704 | 47 | 291 | 5.0 | 12.0 | 0.00 | 0.24 | 0.15 | 65 | 1011.7 |
| 20260502232204 | 47 | 305 | 5.0 | 13.0 | 0.00 | 0.24 | 0.15 | 65 | 1011.7 |
| 20260502231704 | 47 | 296 | 5.0 | 12.0 | 0.00 | 0.24 | 0.15 | 64 | 1011.6 |
| 20260502231204 | 47 | 294 | 3.0 | 8.0 | 0.00 | 0.24 | 0.15 | 64 | 1011.6 |
| 20260502230705 | 48 | 286 | 5.0 | 13.0 | 0.00 | 0.24 | 0.15 | 63 | 1011.5 |